Regional Weather Roundup
Issued by NWS San Angelo, TX

Home | Current Version | Previous Version | Text Only | Print | Product List | Glossary On
Versions: 1 2 3 4 5 6 7 8 9 10 11 12 13 14 15 16 17 18 19 20 21 22 23 24 25 26 27 28 29 30 31 32 33 34 35 36 37 38 39 40 41 42 43 44 45 46 47 48 49 50
000
ASUS44 KSJT 181110
RWRSJT
WEST CENTRAL TEXAS REGIONAL WEATHER ROUNDUP
NATIONAL WEATHER SERVICE SAN ANGELO TX
600 AM CDT WED OCT 18 2017

NOTE: "FAIR" INDICATES FEW OR NO CLOUDS BELOW 12,000 FEET WITH NO
SIGNIFICANT WEATHER AND/OR OBSTRUCTIONS TO VISIBILITY.

TXZ049-054-064>066-071>073-076>078-098-099-113-114-127-128-139-140-
154-155-168>170-181200
...LOCATIONS ACROSS WEST CENTRAL TEXAS...

CITY           SKY/WX    TMP DP  RH WIND       PRES   REMARKS
SAN ANGELO     CLEAR     52  41  66 CALM      30.09S
ABILENE        CLEAR     59  41  51 S13       30.08S
DYESS AFB      CLEAR     61  43  51 S8        30.07S
JUNCTION       CLEAR     40  38  93 W5        30.14S WCI  37
SWEETWATER     CLEAR     54  39  58 S12       30.10F
BROWNWOOD      CLEAR     39  37  93 E3        30.13S
COLEMAN        SUNNY     49  41  73 S3        30.12R
SONORA         CLEAR     45  37  76 CALM      30.17S
OZONA          FAIR      50  39  66 SW3       30.15S
BRADY          NOT AVBL
$$

TEXAS PANHANDLE/OKLAHOMA PANHANDLE

CITY           SKY/WX    TMP DP  RH WIND       PRES   REMARKS
AMARILLO       CLEAR     49  42  77 S9        30.05S
BORGER         CLEAR     56  44  64 S8        30.03S
CANADIAN       CLEAR     44  39  83 CALM      30.03R
DALHART        CLEAR     43  38  82 NW3       30.05S
DUMAS          CLOUDY    46  38  74 SW7       30.02F
GUYMON         NOT AVBL
HEREFORD       CLOUDY    48  44  84 SW6       30.07S
PAMPA          SUNNY     56  40  54 SW10      30.05S
PERRYTON       CLEAR     53  45  73 SW8       30.00R
$$

SOUTHERN PANHANDLE/SOUTH PLAINS/ROLLING PLAINS

CITY           SKY/WX    TMP DP  RH WIND       PRES   REMARKS
LUBBOCK        CLEAR     53  40  61 SW9       30.08R
SNYDER         CLEAR     54  38  54 S8        30.09S
CHILDRESS      CLEAR     50  39  66 SE6       30.05R
SEMINOLE       SUNNY     47  40  76 CALM      30.10S
$$

PERMIAN BASIN

CITY           SKY/WX    TMP DP  RH WIND       PRES   REMARKS
MIDLAND        CLOUDY    57  40  52 S9        30.08S
ODESSA         NOT AVBL
WINK           CLOUDY    52  43  71 E3        30.06S
$$

FAR WEST/SOUTHWEST MOUNTAINS/TRANS PECOS

CITY           SKY/WX    TMP DP  RH WIND       PRES   REMARKS
ALPINE         MOSUNNY   61  32  33 W10       30.22S
DRYDEN           N/A     52  44  74 N9        30.09S
EL PASO        MOCLDY    62  43  49 S3        30.10S
FORT STOCKTON  CLEAR     54  43  66 S10       30.08S
GUADALUPE PASS CLEAR     64  41  42 W8        30.21S
MARFA          CLOUDY    47  37  68 N7        30.21S
PECOS          CLOUDY    52  48  85 CALM      30.06S
$$

DALLAS/FORT WORTH METROPLEX

CITY           SKY/WX    TMP DP  RH WIND       PRES   REMARKS
DFW AIRPORT    CLEAR     51  43  74 SE5       30.12R
FTW MEACHAM    CLEAR     53  44  71 S8        30.13R
DAL-EXECUTIVE  CLEAR     50  43  77 S5        30.14R
GRAND PRAIRIE  CLEAR     53  43  67 CALM      30.15R
ADDISON        CLEAR     55  45  67 SE5       30.14F
MESQUITE       SUNNY     46  42  85 CALM      30.16R
LANCASTER      SUNNY     46  42  85 CALM      30.16R
$$

NORTH CENTRAL TEXAS

CITY           SKY/WX    TMP DP  RH WIND       PRES   REMARKS
SHRMAN/DENISON SUNNY     53  43  68 SE9       30.14R
GAINESVILLE    CLEAR     50  43  77 S7        30.14S
BRIDGEPORT     SUNNY     43  43 100 CALM      30.13S
DENTON         CLEAR     48  43  82 SE6       30.13R
WAXAHACHIE     SUNNY     49  42  76 SE3       30.16R
GRANBURY       SUNNY     51  44  75 SE3       30.14R
$$

WESTERN NORTH TEXAS

CITY           SKY/WX    TMP DP  RH WIND       PRES   REMARKS
WICHITA FALLS  CLEAR     47  42  83 SE8       30.08R
VERNON         SUNNY     50  41  70 S5        30.06S
BRECKENRIDGE   SUNNY     56  43  61 S8        30.09S
COMANCHE       CLEAR     52  45  75 MISG      30.13R
$$

CENTRAL AND SOUTH CENTRAL TEXAS

CITY           SKY/WX    TMP DP  RH WIND       PRES   REMARKS
AUSTIN/BERGSTM CLEAR     41  41 100 CALM      30.15S
WACO           CLEAR     46  41  82 E3        30.15R
HILLSBORO      SUNNY     52  43  70 SE7       30.14S
TEMPLE         CLEAR     47  42  83 S5        30.15S
KILLEEN-GRAY   CLEAR     54  45  71 S6        30.14R
FORT HOOD      CLEAR     50  44  79 CALM      30.11R
GEORGETOWN     CLEAR     47  42  83 CALM      30.17R
LAGO VISTA     FAIR      58  47  66 S3        30.15S
SAN MARCOS       N/A    N/A N/A N/A MISG        N/A
NEW BRAUNFELS  CLEAR     46  42  86 NW7       30.13S
RANDOLPH AFB   CLEAR     47  43  87 NW6       30.15R
SAN ANTONIO    CLEAR     49  43  80 NW5       30.15S
STINSON        CLEAR     50  47  89 CALM      30.13R
PLEASANTON     NOT AVBL
LA GRANGE      PTCLDY    46  44  95 CALM      30.13S
GIDDINGS       SUNNY     44  42  93 CALM      30.15S
$$

EAST TEXAS

CITY           SKY/WX    TMP DP  RH WIND       PRES   REMARKS
PARIS          CLEAR     46  42  86 SE6       30.18R
CLARKSVILLE    NOT AVBL
TYLER          CLEAR     49  44  83 CALM      30.17R
LONGVIEW       CLEAR     44  43  96 CALM      30.17S
PALESTINE        N/A     45  44  95 CALM      30.18R
NACOGDOCHES    CLEAR     41  40  96 CALM      30.17S
$$

TEXAS HILL COUNTRY AND EDWARDS PLATEAU

CITY           SKY/WX    TMP DP  RH WIND       PRES   REMARKS
LLANO          SUNNY     43  39  87 CALM      30.17F
HORSESHOE BAY  FAIR      44  42  93 CALM      30.15R
KERRVILLE      CLEAR     41  40  95 CALM      30.16S
FREDERICKSBRG  CLEAR     41  37  88 CALM      30.16S
ROCKSPRINGS    NOT AVBL
HONDO          CLEAR     45  40  82 N7        30.15R
UVALDE         MOSUNNY   45  42  88 NE5       30.15R
DEL RIO        CLEAR     51  45  79 E8        30.11S
$$

SOUTHEAST TEXAS

CITY           SKY/WX    TMP DP  RH WIND       PRES   REMARKS
COLLEGE STN    CLEAR     50  45  83 CALM      30.15S
CALDWELL       SUNNY     47  44  92 CALM      30.16S
CROCKETT         N/A     41  39  93 CALM      30.19S
BRENHAM        CLEAR     45  45  97 CALM      30.16S
HUNTSVILLE     CLEAR     47  43  86 CALM      30.16R
CONROE         CLEAR     42  41  96 CALM      30.16R
HOUSTON BUSH   CLEAR     53  50  89 NW3       30.15R
HOUSTON HOBBY  CLEAR     58  50  75 N5        30.14R
PERLAND        CLEAR     56  50  80 CALM      30.15R
WHARTON        SUNNY     48  45  91 CALM      30.15S
$$

THE UPPER TEXAS COAST

CITY           SKY/WX    TMP DP  RH WIND       PRES   REMARKS
ORANGE         SUNNY     49  49 100 CALM      30.16S
PORT ARTHUR    CLEAR     56  52  86 N3        30.13S
GALVESTON      CLEAR     67  58  72 N8        30.13S
ANGLETON       CLEAR     55  51  86 N5        30.14R
BAY CITY       SUNNY     50  47  90 CALM      30.14R
$$

TEXAS COASTAL BEND, RIO GRANDE PLAINS DEEP SOUTH TEXAS

CITY           SKY/WX    TMP DP  RH WIND       PRES   REMARKS
VICTORIA       CLEAR     48  46  93 N5        30.14R
BEEVILLE       FAIR      49  49  99 N3        30.13S
ROCKPORT       CLEAR     59  57  93 N5        30.12S FOG
PORT ARANSAS   NOT AVBL
PORT LAVACA    SUNNY     54  49  83 N5        30.13S
CORPUS CHRISTI CLEAR     54  52  93 N5        30.12S
KINGSVILLE NAS CLEAR     51  50  96 NW6       30.13R
COTULLA        CLEAR     52  46  80 CALM      30.13S
LAREDO         CLEAR     59  56  89 SE5       30.12F
BROWNSVILLE    CLEAR     61  61 100 CALM      30.10S
PORT ISABEL    CLEAR     62  60  93 NW5       30.10R
HEBBRONVILLE   SUNNY     55  54  97 SW3       30.13S FOG
MCALLEN        CLEAR     61  59  93 CALM      30.12S
WESLACO        CLEAR     58  57  97 CALM      30.11R FOG
FALFURRIAS     SUNNY     55  52  90 CALM      30.12S
EDINBURG       SUNNY     57  55  94 CALM      30.12S FOG
$$



USA.gov is the U.S. government's official web portal to all federal, state and local government web resources and services.